Location: Acequia del Cap
(41.7000°N, 0.6167°E)
Time: 23:36:39
(UTC+00:00)

Cosmos 2297 Rocket - Pass Details

Date: 07 August 2020
Orbit: 838 x 845 km, 71.0° (Epoch: 22 September)

Event Time Altitude Azimuth Distance (km) Brightness Sun altitude
Exits shadow 00:46:06 30° 85° (E) 1,478 3.5 -31.1°
Drops below altitude 10° 00:50:04 10° 43° (NE) 2,461 5.3 -31.0°
Sets 00:52:45 0° 34° (NE) 3,401 6.3 -30.9°
